Location: Newark
(40.9833°N, 0.0333°W)
Time: 02:50:30
(UTC+00:00)

Transit 2A Rocket - Pass Details

Date: 30 October 2020
Orbit: 588 x 914 km, 66.7° (Epoch: 26 November)

Event Time Altitude Azimuth Distance (km) Brightness Sun altitude
Rises 18:03:48 0° 329° (NNW) 3,256 8.6 -12.9°
Reaches altitude 10° 18:06:18 10° 329° (NNW) 2,271 7.8 -13.4°
Maximum altitude 18:11:28 83° 242° (WSW) 706 4.9 -14.4°
Drops below altitude 10° 18:16:07 10° 155° (SSE) 2,053 7.0 -15.2°
Sets 18:18:17 0° 154° (SSE) 2,919 7.8 -15.6°
